This demonstration page uses our WeatherBlox Daily Observations layout. Learn more.

Left ArrowRight Arrow

44.89941, -97.11507

Hourly Observations for December 9, 2022

Temp ( °F °C ) Dew Point ( °F °C ) Humidity (%) Winds ( mph kmh ) Pressure ( in mb ) Visibility ( mi km ) Precip ( " mm )
12:02 am 00:02 Cloudy with Mist and Fog 30 -1.1 30 -1.1 100 100 Calm 30.20 1023 2 3 0.00 0.00
12:13 am 00:13 Cloudy with Mist and Fog 30 -1.1 29 -1.7 96 96 Calm 30.20 1023 2 3 0.00 0.00
12:45 am 00:45 Cloudy with Mist and Fog 30 -1.1 29 -1.7 96 96 SE 3 6 30.20 1023 2 3 0.00 0.00
12:53 am 00:53 Cloudy with Mist and Fog 30 -1.1 29 -1.7 96 96 SE 6 9 30.18 1022 2 3 0.00 0.00
1:33 am 01:33 Cloudy with Mist and Fog 30 -1.1 30 -1.1 100 100 ESE 3 6 30.20 1023 2 3 0.00 0.00
1:53 am 01:53 Cloudy with Mist and Fog 30 -1.1 30 -1.1 100 100 Calm 30.17 1022 2 3 0.00 0.00
2:10 am 02:10 Cloudy with Mist and Fog 30 -1.1 30 -1.1 100 100 Calm 30.20 1023 2 3 0.00 0.00
2:53 am 02:53 Cloudy with Mist and Fog 30 -1.1 29 -1.7 96 96 Calm 30.18 1022 3 4 0.00 0.00
3:05 am 03:05 Cloudy with Mist and Fog 30 -1.1 28 -2.2 92 92 Calm 30.21 1023 3 4 0.00 0.00
3:26 am 03:26 Cloudy with Mist and Fog 29 -1.7 28 -2.2 96 96 Calm 30.20 1023 3 5 0.00 0.00
3:34 am 03:34 Cloudy with Mist and Fog 29 -1.7 28 -2.2 96 96 ENE 3 6 30.19 1022 3 4 0.00 0.00
3:44 am 03:44 Cloudy with Mist and Fog 29 -1.7 27 -2.8 92 92 E 5 7 30.19 1022 3 5 0.00 0.00
3:53 am 03:53 Cloudy with Mist and Fog 29 -1.7 27 -2.8 92 92 E 5 7 30.16 1021 3 5 0.00 0.00
4:53 am 04:53 Cloudy with Mist and Fog 27 -2.8 26 -3.3 96 96 ENE 6 9 30.16 1021 4 6 0.00 0.00
5:53 am 05:53 Cloudy with Mist and Fog 27 -2.8 26 -3.3 96 96 ENE 5 7 30.16 1021 4 6 0.00 0.00
6:45 am 06:45 Cloudy with Mist and Fog 27 -2.8 26 -3.3 96 96 E 5 7 30.20 1023 4 6 0.00 0.00
6:53 am 06:53 Cloudy with Mist and Fog 27 -2.8 26 -3.3 96 96 ENE 3 6 30.17 1022 4 6 0.00 0.00
7:45 am 07:45 Cloudy with Mist and Fog 27 -2.8 26 -3.3 96 96 Calm 30.20 1023 4 6 0.00 0.00
7:53 am 07:53 Cloudy with Mist and Fog 27 -2.8 26 -3.3 96 96 E 3 6 30.17 1022 4 6 0.00 0.00
8:08 am 08:08 Cloudy with Mist and Fog 28 -2.2 26 -3.3 92 92 E 6 9 30.21 1023 4 6 0.00 0.00
8:49 am 08:49 Cloudy with Mist and Fog 28 -2 27 -3 93 93 S 5 7 30.22 1024 3 5 0.00 0.00
8:53 am 08:53 Cloudy with Mist and Fog 28 -2.2 27 -2.8 96 96 S 6 9 30.19 1022 3 5 0.00 0.00
8:58 am 08:58 Cloudy with Mist and Fog 28 -2.2 27 -2.8 96 96 SSE 5 7 30.23 1024 3 4 0.00 0.00
9:11 am 09:11 Cloudy with Mist and Fog 28 -2.2 27 -2.8 96 96 SSE 6 9 30.23 1024 3 4 0.00 0.00
9:53 am 09:53 Cloudy with Mist and Fog 29 -1.7 27 -2.8 92 92 SSE 6 9 30.20 1023 3 4 0.00 0.00
10:53 am 10:53 Cloudy with Mist and Fog 28 -2.2 27 -2.8 96 96 ESE 8 13 30.21 1023 2 3 0.00 0.00
11:53 am 11:53 Cloudy with Mist and Fog 29 -1.7 29 -1.7 100 100 Calm 30.18 1022 2 3 0.00 0.00
12:10 pm 12:10 Cloudy with Mist and Fog 29 -1.7 28 -2.2 96 96 ESE 5 7 30.20 1023 2 3 0.00 0.00
12:37 pm 12:37 Cloudy with Mist and Fog 29 -1.7 28 -2.2 96 96 ESE 6 9 30.19 1022 3 5 0.00 0.00
12:53 pm 12:53 Cloudy with Mist and Fog 30 -1.1 28 -2.2 92 92 ESE 6 9 30.14 1021 3 5 0.00 0.00
1:53 pm 13:53 Cloudy with Mist and Fog 31 -0.6 29 -1.7 92 92 SE 5 7 30.13 1020 4 6 0.00 0.00
2:53 pm 14:53 Cloudy with Mist and Fog 30 -1.1 29 -1.7 96 96 ESE 8 13 30.12 1020 3 4 0.00 0.00
3:29 pm 15:29 Cloudy with Mist and Fog 29 -1.7 28 -2.2 96 96 ESE 9 15 30.16 1021 2 3 0.00 0.00
3:42 pm 15:42 Cloudy with Mist and Fog 29 -1.7 28 -2.2 96 96 ESE 9 15 30.16 1021 1 2 0.00 0.00
3:53 pm 15:53 Cloudy with Mist and Fog 29 -1.7 28 -2.2 96 96 SE 9 15 30.14 1021 2 3 0.00 0.00
4:10 pm 16:10 Cloudy with Mist and Fog 29 -1.7 28 -2.2 96 96 SE 8 13 30.16 1021 1 2 0.00 0.00
4:31 pm 16:31 Cloudy with Mist and Fog 29 -1.7 28 -2.2 96 96 SSE 13 20 30.16 1021 2 2 0.00 0.00
4:42 pm 16:42 Cloudy with Mist and Fog 29 -1.7 28 -2.2 96 96 SSE 10 17 30.16 1021 2 3 0.00 0.00
4:53 pm 16:53 Cloudy with Mist and Fog 29 -1.7 28 -2.2 96 96 SE 13 20 30.13 1020 2 3 0.00 0.00
5:15 pm 17:15 Cloudy with Mist and Fog 28 -2.2 28 -2.2 100 100 SE 10 17 30.17 1022 1 2 0.00 0.00
5:23 pm 17:23 Cloudy with Mist and Fog 28 -2.2 28 -2.2 100 100 SE 13 20 30.17 1022 2 3 0.00 0.00
5:32 pm 17:32 Cloudy with Mist and Fog 28 -2.2 28 -2.2 100 100 SE 9 15 30.15 1021 3 4 0.00 0.00
5:41 pm 17:41 Cloudy with Mist and Fog 28 -2.2 28 -2.2 100 100 SE 9 15 30.15 1021 3 5 0.00 0.00
5:53 pm 17:53 Cloudy with Mist and Fog 28 -2.2 28 -2.2 100 100 SE 12 19 30.13 1020 4 6 0.00 0.00
6:53 pm 18:53 Cloudy with Mist and Fog 28 -2.2 27 -2.8 96 96 SSE 14 22 30.12 1020 4 6 0.00 0.00
7:09 pm 19:09 Cloudy with Mist and Fog 28 -2.2 27 -2.8 96 96 SE 15 24 30.15 1021 4 6 0.00 0.00
7:24 pm 19:24 Cloudy with Mist and Fog 28 -2.2 27 -2.8 96 96 SSE 15 24 30.15 1021 4 6 0.00 0.00
7:41 pm 19:41 Cloudy with Light Snow 28 -2.2 27 -2.8 96 96 SE 10 17 30.14 1021 2 3 0.01 0.13
7:53 pm 19:53 Cloudy with Light Snow 28 -2.2 27 -2.8 96 96 SSE 14 22 30.11 1020 2 3 0.01 0.13
8:07 pm 20:07 Cloudy with Light Snow 28 -2.2 27 -2.8 96 96 SSE 16 26 30.15 1021 2 3 0.01 0.13
8:42 pm 20:42 Cloudy with Light Snow 28 -2.2 27 -2.8 96 96 SE 14 22 30.13 1020 2 3 0.01 0.13
8:53 pm 20:53 Cloudy with Light Snow 28 -2.2 27 -2.8 96 96 SSE 15 24 30.10 1019 2 3 0.01 0.13
9:18 pm 21:18 Cloudy with Mist and Fog 28 -2.2 27 -2.8 96 96 SSE 15 24 30.13 1020 3 4 0.01 0.13
9:26 pm 21:26 Cloudy with Light Snow 28 -2.2 27 -2.8 96 96 SE 15 24 30.13 1020 3 5 0.01 0.13
9:53 pm 21:53 Cloudy with Light Snow 28 -2.2 27 -2.8 96 96 SSE 13 20 30.09 1019 3 4 0.01 0.13
10:03 pm 22:03 Cloudy with Light Snow 28 -2.2 27 -2.8 96 96 SSE 14 22 30.12 1020 2 3 0.01 0.13
10:22 pm 22:22 Cloudy with Mist and Fog 28 -2.2 27 -2.8 96 96 SSE 14 22 30.12 1020 4 6 0.01 0.13
10:45 pm 22:45 Cloudy with Mist and Fog 28 -2.2 27 -2.8 96 96 SSE 14 22 30.12 1020 4 6 0.01 0.13
10:53 pm 22:53 Cloudy with Mist and Fog 28 -2.2 27 -2.8 96 96 SSE 13 20 30.08 1019 4 6 0.01 0.13
11:51 pm 23:51 Cloudy with Mist and Fog 28 -2 27 -3 93 93 SSE 16 26 30.09 1019 5 8 0.00 0.00
11:53 pm 23:53 Cloudy with Mist and Fog 28 -2.2 27 -2.8 96 96 SSE 16 26 30.06 1018 5 8 0.00 0.00

Powered by AerisWeather